Time,TemperatureF,DewpointF,PressureIn,WindDirection,WindDirectionDegrees,WindSpeedMPH,WindSpeedGustMPH,Humidity,HourlyPrecipIn,Conditions,Clouds,dailyrainin,SoftwareType,DateUTC
2013-03-16 00:08:00,21.0,0.0,29.87,NW,315,0.0,0.0,0,0.00,,OVC075,0.05,VWS V14.01,2013-03-16 04:08:00,
2013-03-16 00:13:00,21.0,0.0,29.87,North,359,0.0,0.0,0,0.00,,OVC075,0.05,VWS V14.01,2013-03-16 04:13:00,
2013-03-16 00:18:00,21.0,0.0,29.88,North,349,2.0,2.0,0,0.00,,OVC075,0.05,VWS V14.01,2013-03-16 04:18:00,
2013-03-16 00:23:00,21.0,0.0,29.88,North,4,0.0,0.0,0,0.00,,OVC075,0.05,VWS V14.01,2013-03-16 04:23:00,
2013-03-16 00:28:00,21.0,0.0,29.88,North,7,0.0,0.0,0,0.00,,OVC075,0.05,VWS V14.01,2013-03-16 04:28:00,
2013-03-16 00:33:00,21.0,0.0,29.88,North,0,0.0,0.0,0,0.00,,OVC075,0.05,VWS V14.01,2013-03-16 04:33:00,
2013-03-16 00:39:00,21.0,0.0,29.88,North,0,0.0,0.0,0,0.00,,OVC075,0.05,VWS V14.01,2013-03-16 04:39:00,
2013-03-16 00:44:00,21.0,0.0,29.88,NNE,28,2.0,2.0,0,0.00,,OVC075,0.05,VWS V14.01,2013-03-16 04:44:00,
2013-03-16 00:49:00,21.0,0.0,29.87,NE,35,0.0,0.0,0,0.00,,OVC075,0.05,VWS V14.01,2013-03-16 04:49:00,
2013-03-16 00:54:00,20.6,0.0,29.87,NNE,27,0.0,0.0,0,0.00,,OVC075,0.05,VWS V14.01,2013-03-16 04:54:00,
2013-03-16 00:59:00,20.6,0.0,29.87,NE,34,5.0,5.0,0,0.00,,OVC075,0.05,VWS V14.01,2013-03-16 04:59:00,
2013-03-16 01:04:00,20.6,0.0,29.88,NE,34,5.0,5.0,0,0.00,,OVC075,0.00,VWS V14.01,2013-03-16 05:04:00,
2013-03-16 01:09:00,20.6,0.0,29.88,NE,34,5.0,5.0,0,0.00,,OVC075,0.00,VWS V14.01,2013-03-16 05:09:00,
2013-03-16 01:14:00,20.3,0.0,29.88,NE,34,5.0,5.0,0,0.00,,OVC075,0.00,VWS V14.01,2013-03-16 05:14:00,
2013-03-16 01:19:00,20.3,0.0,29.87,NE,34,5.0,5.0,0,0.00,,OVC075,0.00,VWS V14.01,2013-03-16 05:19:00,
2013-03-16 01:24:00,20.3,0.0,29.87,NE,34,5.0,5.0,0,0.00,,OVC075,0.00,VWS V14.01,2013-03-16 05:24:00,
2013-03-16 01:29:00,20.3,0.0,29.87,NE,34,0.0,0.0,0,0.00,,OVC075,0.00,VWS V14.01,2013-03-16 05:29:00,
2013-03-16 01:34:00,20.2,0.0,29.87,NW,313,0.0,0.0,0,0.00,,OVC075,0.00,VWS V14.01,2013-03-16 05:34:00,
2013-03-16 01:39:00,20.2,0.0,29.87,NW,313,0.0,0.0,0,0.00,,OVC075,0.00,VWS V14.01,2013-03-16 05:39:00,
2013-03-16 01:44:00,20.2,0.0,29.87,NW,313,0.0,0.0,0,0.00,,OVC075,0.00,VWS V14.01,2013-03-16 05:44:00,
2013-03-16 01:49:00,20.2,0.0,29.87,NW,313,0.0,0.0,0,0.00,,OVC075,0.00,VWS V14.01,2013-03-16 05:49:00,
2013-03-16 01:54:00,20.2,0.0,29.87,NW,313,0.0,0.0,0,0.00,,OVC075,0.00,VWS V14.01,2013-03-16 05:54:00,
2013-03-16 02:00:00,20.2,0.0,29.87,NW,313,0.0,0.0,0,0.00,,OVC075,0.00,VWS V14.01,2013-03-16 06:00:00,
2013-03-16 02:05:00,20.2,0.0,29.86,NNE,27,0.0,0.0,0,0.00,,OVC050,0.00,VWS V14.01,2013-03-16 06:05:00,
2013-03-16 02:10:00,20.2,0.0,29.86,NNE,28,0.0,0.0,0,0.00,,OVC050,0.00,VWS V14.01,2013-03-16 06:10:00,
2013-03-16 02:15:00,20.2,0.0,29.86,NNE,17,0.0,0.0,0,0.00,,OVC050,0.00,VWS V14.01,2013-03-16 06:15:00,
2013-03-16 02:20:00,20.0,0.0,29.86,NNE,20,0.0,0.0,0,0.00,,OVC060,0.00,VWS V14.01,2013-03-16 06:20:00,
2013-03-16 02:25:00,20.0,0.0,29.86,NNE,17,0.0,0.0,0,0.00,,OVC060,0.00,VWS V14.01,2013-03-16 06:25:00,
2013-03-16 02:30:00,20.0,0.0,29.86,NNE,17,0.0,0.0,0,0.00,,OVC060,0.00,VWS V14.01,2013-03-16 06:30:00,
2013-03-16 02:35:00,20.0,0.0,29.87,NNE,17,0.0,0.0,0,0.00,,OVC060,0.00,VWS V14.01,2013-03-16 06:35:00,
2013-03-16 02:40:00,20.0,0.0,29.87,NNE,27,0.0,0.0,0,0.00,,OVC048,0.00,VWS V14.01,2013-03-16 06:40:00,
2013-03-16 02:45:00,19.9,9.4,29.87,NNE,27,0.0,0.0,63,0.00,,OVC048,0.00,VWS V14.01,2013-03-16 06:45:00,
2013-03-16 02:50:00,19.9,9.4,29.87,NNE,27,0.0,0.0,63,0.00,,OVC048,0.00,VWS V14.01,2013-03-16 06:50:00,
2013-03-16 02:55:00,19.9,9.4,29.87,NNE,27,0.0,0.0,63,0.00,,OVC048,0.00,VWS V14.01,2013-03-16 06:55:00,
2013-03-16 03:00:00,19.9,9.4,29.86,NNE,23,0.0,0.0,63,0.00,,OVC048,0.00,VWS V14.01,2013-03-16 07:00:00,
2013-03-16 03:05:00,19.9,9.4,29.86,NNE,23,0.0,0.0,63,0.00,,OVC048,0.00,VWS V14.01,2013-03-16 07:05:00,
2013-03-16 03:10:00,19.9,9.4,29.86,NNE,23,0.0,0.0,63,0.00,,OVC048,0.00,VWS V14.01,2013-03-16 07:10:00,
2013-03-16 03:15:00,19.9,9.4,29.85,NNE,25,5.0,5.0,63,0.00,,OVC048,0.00,VWS V14.01,2013-03-16 07:15:00,
2013-03-16 03:20:00,19.9,9.4,29.85,NE,51,0.0,0.0,63,0.00,,,0.00,VWS V14.01,2013-03-16 07:20:00,
2013-03-16 03:25:00,19.9,9.4,29.85,NE,51,0.0,0.0,63,0.00,,,0.00,VWS V14.01,2013-03-16 07:25:00,
2013-03-16 03:30:00,19.9,9.4,29.85,NE,51,0.0,0.0,63,0.00,,,0.00,VWS V14.01,2013-03-16 07:30:00,
2013-03-16 03:35:00,19.9,9.4,29.85,NE,51,0.0,0.0,63,0.00,,,0.00,VWS V14.01,2013-03-16 07:35:00,
2013-03-16 03:40:00,19.9,9.4,29.85,NE,51,0.0,0.0,63,0.00,,,0.00,VWS V14.01,2013-03-16 07:40:00,
2013-03-16 03:45:00,19.4,8.9,29.86,NE,51,0.0,0.0,63,0.00,,,0.00,VWS V14.01,2013-03-16 07:45:00,
2013-03-16 03:51:00,19.2,8.7,29.86,NE,51,0.0,0.0,63,0.00,,,0.00,VWS V14.01,2013-03-16 07:51:00,
2013-03-16 03:56:00,19.1,8.6,29.86,North,10,0.0,0.0,63,0.00,,,0.00,VWS V14.01,2013-03-16 07:56:00,
2013-03-16 04:01:00,19.1,8.6,29.86,North,10,0.0,0.0,63,0.00,,,0.00,VWS V14.01,2013-03-16 08:01:00,
2013-03-16 04:06:00,19.1,8.6,29.86,NNE,24,0.0,0.0,63,0.00,,,0.00,VWS V14.01,2013-03-16 08:06:00,
2013-03-16 04:11:00,19.1,8.6,29.86,NNE,24,0.0,0.0,63,0.00,,,0.00,VWS V14.01,2013-03-16 08:11:00,
2013-03-16 04:16:00,19.1,8.6,29.80,North,6,0.0,0.0,63,0.00,,,0.00,VWS V14.01,2013-03-16 08:16:00,
2013-03-16 04:21:00,19.1,8.6,29.80,NNE,31,0.0,0.0,63,0.00,,,0.00,VWS V14.01,2013-03-16 08:21:00,
2013-03-16 04:27:00,19.1,8.6,29.80,NNE,31,0.0,0.0,63,0.00,,,0.00,VWS V14.01,2013-03-16 08:27:00,
2013-03-16 04:32:00,18.4,7.9,29.85,NNE,31,0.0,0.0,63,0.00,,,0.00,VWS V14.01,2013-03-16 08:32:00,
2013-03-16 04:37:00,18.4,7.9,29.85,NNE,27,0.0,0.0,63,0.00,,,0.00,VWS V14.01,2013-03-16 08:37:00,
2013-03-16 04:42:00,18.4,7.9,29.85,North,0,0.0,0.0,63,0.00,,,0.00,VWS V14.01,2013-03-16 08:42:00,
2013-03-16 04:47:00,18.4,7.9,29.84,NNE,28,0.0,0.0,63,0.00,,,0.00,VWS V14.01,2013-03-16 08:47:00,
2013-03-16 04:52:00,18.4,7.9,29.84,NNE,21,0.0,0.0,63,0.00,,,0.00,VWS V14.01,2013-03-16 08:52:00,
2013-03-16 04:57:00,18.4,12.4,29.84,NNE,32,0.0,0.0,77,0.00,,,0.00,VWS V14.01,2013-03-16 08:57:00,
2013-03-16 05:02:00,18.4,12.4,29.85,NNE,24,0.0,0.0,77,0.00,,,0.00,VWS V14.01,2013-03-16 09:02:00,
2013-03-16 05:07:00,18.4,12.7,29.85,NNE,24,0.0,0.0,78,0.00,,,0.00,VWS V14.01,2013-03-16 09:07:00,
2013-03-16 05:12:00,18.4,12.7,29.85,NNE,18,0.0,0.0,78,0.00,,,0.00,VWS V14.01,2013-03-16 09:12:00,
2013-03-16 05:17:00,18.3,12.6,29.85,NNE,13,0.0,0.0,78,0.00,,,0.00,VWS V14.01,2013-03-16 09:17:00,
2013-03-16 05:22:00,18.3,12.6,29.85,NNE,23,0.0,0.0,78,0.00,,,0.00,VWS V14.01,2013-03-16 09:22:00,
2013-03-16 05:27:00,18.3,12.6,29.85,NNE,21,0.0,0.0,78,0.00,,,0.00,VWS V14.01,2013-03-16 09:27:00,
2013-03-16 05:32:00,18.3,12.6,29.84,NNE,21,0.0,0.0,78,0.00,,,0.00,VWS V14.01,2013-03-16 09:32:00,
2013-03-16 05:37:00,18.3,12.6,29.84,NNE,23,0.0,0.0,78,0.00,,,0.00,VWS V14.01,2013-03-16 09:37:00,
2013-03-16 05:42:00,18.3,13.2,29.84,NNE,25,0.0,0.0,80,0.00,,,0.00,VWS V14.01,2013-03-16 09:42:00,
2013-03-16 05:47:00,18.3,13.5,29.84,NNE,28,0.0,0.0,81,0.00,,,0.00,VWS V14.01,2013-03-16 09:47:00,
2013-03-16 05:52:00,18.3,13.5,29.84,NNE,28,0.0,1.0,81,0.00,,,0.00,VWS V14.01,2013-03-16 09:52:00,
2013-03-16 05:57:00,18.3,13.5,29.84,North,1,0.0,0.0,81,0.00,,,0.00,VWS V14.01,2013-03-16 09:57:00,
2013-03-16 06:02:00,18.3,13.5,29.85,North,7,0.0,0.0,81,0.00,,,0.00,VWS V14.01,2013-03-16 10:02:00,
2013-03-16 06:07:00,18.3,13.5,29.85,North,7,0.0,0.0,81,0.00,,,0.00,VWS V14.01,2013-03-16 10:07:00,
2013-03-16 06:12:00,18.3,13.5,29.85,NE,35,0.0,0.0,81,0.00,,,0.00,VWS V14.01,2013-03-16 10:12:00,
2013-03-16 06:17:00,18.3,13.5,29.78,North,0,0.0,0.0,81,0.00,,,0.00,VWS V14.01,2013-03-16 10:17:00,
2013-03-16 06:22:00,18.3,13.5,29.78,NNE,17,0.0,0.0,81,0.00,,,0.00,VWS V14.01,2013-03-16 10:22:00,
2013-03-16 06:27:00,18.3,13.5,29.78,NNE,31,0.0,0.0,81,0.00,,,0.00,VWS V14.01,2013-03-16 10:27:00,
2013-03-16 06:33:00,18.3,13.5,29.85,NNE,24,0.0,0.0,81,0.00,,,0.00,VWS V14.01,2013-03-16 10:33:00,
2013-03-16 06:38:00,18.1,13.5,29.85,NNE,24,3.0,3.0,82,0.00,,,0.00,VWS V14.01,2013-03-16 10:38:00,
2013-03-16 06:43:00,18.1,13.5,29.85,NE,42,0.0,0.0,82,0.00,,,0.00,VWS V14.01,2013-03-16 10:43:00,
2013-03-16 06:48:00,18.1,13.5,29.86,NNE,16,0.0,0.0,82,0.00,,,0.00,VWS V14.01,2013-03-16 10:48:00,
2013-03-16 06:53:00,18.1,13.5,29.86,NNE,28,0.0,0.0,82,0.00,,,0.00,VWS V14.01,2013-03-16 10:53:00,
2013-03-16 06:58:00,18.1,13.5,29.86,NNE,14,0.0,0.0,82,0.00,,,0.00,VWS V14.01,2013-03-16 10:58:00,
2013-03-16 07:03:00,18.1,13.5,29.86,NNE,13,0.0,0.0,82,0.00,,,0.00,VWS V14.01,2013-03-16 11:03:00,
2013-03-16 07:08:00,18.0,13.4,29.86,NE,44,0.0,0.0,82,0.00,,,0.00,VWS V14.01,2013-03-16 11:08:00,
2013-03-16 07:13:00,17.8,13.2,29.86,NNE,28,0.0,0.0,82,0.00,,,0.00,VWS V14.01,2013-03-16 11:13:00,
2013-03-16 07:18:00,17.7,13.1,29.86,NNE,24,0.0,0.0,82,0.00,,,0.00,VWS V14.01,2013-03-16 11:18:00,
2013-03-16 07:23:00,17.7,13.1,29.86,NNE,31,0.0,0.0,82,0.00,,,0.00,VWS V14.01,2013-03-16 11:23:00,
2013-03-16 07:28:00,17.7,13.1,29.86,ENE,65,0.0,0.0,82,0.00,,,0.00,VWS V14.01,2013-03-16 11:28:00,
2013-03-16 07:33:00,17.5,12.7,29.86,NE,34,0.0,0.0,81,0.00,,,0.00,VWS V14.01,2013-03-16 11:33:00,
2013-03-16 07:38:00,17.3,12.5,29.86,North,7,0.0,0.0,81,0.00,,,0.00,VWS V14.01,2013-03-16 11:38:00,
2013-03-16 07:43:00,17.2,12.4,29.86,NE,41,0.0,0.0,81,0.00,,,0.00,VWS V14.01,2013-03-16 11:43:00,
2013-03-16 07:48:00,17.2,12.4,29.87,North,7,0.0,0.0,81,0.00,,,0.00,VWS V14.01,2013-03-16 11:48:00,
2013-03-16 07:53:00,17.2,12.4,29.87,NNE,27,0.0,0.0,81,0.00,,,0.00,VWS V14.01,2013-03-16 11:53:00,
2013-03-16 07:58:00,17.2,12.4,29.87,NE,40,0.0,3.0,81,0.00,,,0.00,VWS V14.01,2013-03-16 11:58:00,
2013-03-16 08:04:00,17.2,12.1,29.87,NNE,16,0.0,0.0,80,0.00,,,0.00,VWS V14.01,2013-03-16 12:04:00,
2013-03-16 08:09:00,16.9,11.8,29.87,NNE,30,3.0,3.0,80,0.00,,,0.00,VWS V14.01,2013-03-16 12:09:00,
2013-03-16 08:14:00,16.9,11.8,29.87,NNE,30,3.0,3.0,80,0.00,,,0.00,VWS V14.01,2013-03-16 12:14:00,
2013-03-16 08:19:00,16.9,11.8,29.87,North,10,0.0,0.0,80,0.00,,,0.00,VWS V14.01,2013-03-16 12:19:00,
2013-03-16 08:24:00,16.9,11.8,29.87,North,359,0.0,0.0,80,0.00,,,0.00,VWS V14.01,2013-03-16 12:24:00,
2013-03-16 08:29:00,16.9,11.8,29.87,North,359,0.0,0.0,80,0.00,,,0.00,VWS V14.01,2013-03-16 12:29:00,
2013-03-16 08:34:00,16.9,11.8,29.88,North,359,0.0,0.0,80,0.00,,,0.00,VWS V14.01,2013-03-16 12:34:00,
2013-03-16 08:39:00,16.9,11.8,29.88,North,359,0.0,0.0,80,0.00,,,0.00,VWS V14.01,2013-03-16 12:39:00,
2013-03-16 08:44:00,16.9,11.8,29.88,North,359,0.0,0.0,80,0.00,,,0.00,VWS V14.01,2013-03-16 12:44:00,
2013-03-16 08:49:00,16.9,11.8,29.88,North,359,0.0,0.0,80,0.00,,,0.00,VWS V14.01,2013-03-16 12:49:00,
2013-03-16 08:54:00,16.9,11.8,29.88,NNE,14,0.0,0.0,80,0.00,,,0.00,VWS V14.01,2013-03-16 12:54:00,
2013-03-16 08:59:00,16.9,10.9,29.88,North,0,0.0,0.0,77,0.00,,,0.00,VWS V14.01,2013-03-16 12:59:00,
2013-03-16 09:04:00,16.9,10.9,29.88,NE,37,0.0,0.0,77,0.00,,OVC110,0.00,VWS V14.01,2013-03-16 13:04:00,
2013-03-16 09:09:00,17.0,11.1,29.88,North,0,0.0,2.0,77,0.00,,OVC110,0.00,VWS V14.01,2013-03-16 13:09:00,
2013-03-16 09:14:00,17.0,11.1,29.88,North,0,0.0,0.0,77,0.00,,OVC110,0.00,VWS V14.01,2013-03-16 13:14:00,
2013-03-16 09:19:00,17.0,10.5,29.89,North,0,0.0,0.0,75,0.00,,OVC110,0.00,VWS V14.01,2013-03-16 13:19:00,
2013-03-16 09:24:00,17.2,10.6,29.89,North,0,0.0,0.0,75,0.00,,OVC100,0.00,VWS V14.01,2013-03-16 13:24:00,
2013-03-16 09:30:00,17.2,10.6,29.89,NW,315,0.0,0.0,75,0.00,,OVC100,0.00,VWS V14.01,2013-03-16 13:30:00,
2013-03-16 09:35:00,17.2,10.6,29.90,ENE,61,5.0,5.0,75,0.00,,OVC100,0.00,VWS V14.01,2013-03-16 13:35:00,
2013-03-16 09:40:00,17.3,10.8,29.90,NNE,23,0.0,0.0,75,0.00,,OVC100,0.00,VWS V14.01,2013-03-16 13:40:00,
2013-03-16 09:45:00,17.3,10.8,29.90,NNE,14,0.0,6.0,75,0.00,,OVC100,0.00,VWS V14.01,2013-03-16 13:45:00,
2013-03-16 09:50:00,17.3,10.8,29.90,NNE,14,0.0,0.0,75,0.00,,OVC100,0.00,VWS V14.01,2013-03-16 13:50:00,
2013-03-16 09:55:00,17.3,10.8,29.90,NNE,14,0.0,0.0,75,0.00,,OVC100,0.00,VWS V14.01,2013-03-16 13:55:00,
2013-03-16 10:00:00,17.3,10.8,29.90,NNE,14,0.0,0.0,75,0.00,,OVC100,0.00,VWS V14.01,2013-03-16 14:00:00,
2013-03-16 10:05:00,17.3,10.8,29.90,NNE,14,0.0,0.0,75,0.00,,OVC100,0.00,VWS V14.01,2013-03-16 14:05:00,
2013-03-16 10:10:00,17.3,10.8,29.90,NNE,14,0.0,0.0,75,0.00,,OVC100,0.00,VWS V14.01,2013-03-16 14:10:00,
2013-03-16 10:15:00,17.3,10.8,29.90,NNE,14,0.0,0.0,75,0.00,,OVC100,0.00,VWS V14.01,2013-03-16 14:15:00,
2013-03-16 10:20:00,17.3,10.8,29.90,NNE,14,0.0,0.0,75,0.00,,OVC047,0.00,VWS V14.01,2013-03-16 14:20:00,
2013-03-16 10:25:00,17.3,10.8,29.90,NNE,14,0.0,0.0,75,0.00,,OVC047,0.00,VWS V14.01,2013-03-16 14:25:00,
2013-03-16 10:30:00,17.3,10.8,29.90,NNE,14,0.0,0.0,75,0.00,,OVC047,0.00,VWS V14.01,2013-03-16 14:30:00,
2013-03-16 10:35:00,17.3,10.8,29.90,NNE,14,0.0,0.0,75,0.00,,OVC047,0.00,VWS V14.01,2013-03-16 14:35:00,
2013-03-16 10:41:00,19.9,13.3,29.90,ENE,62,0.0,0.0,75,0.00,,,0.00,VWS V14.01,2013-03-16 14:41:00,
2013-03-16 10:46:00,19.9,13.3,29.90,North,8,0.0,0.0,75,0.00,,,0.00,VWS V14.01,2013-03-16 14:46:00,
2013-03-16 10:51:00,20.0,13.4,29.90,North,7,6.0,6.0,75,0.00,,,0.00,VWS V14.01,2013-03-16 14:51:00,
2013-03-16 10:56:00,20.0,13.4,29.90,NNE,32,2.0,2.0,75,0.00,,,0.00,VWS V14.01,2013-03-16 14:56:00,
2013-03-16 11:01:00,20.0,13.4,29.91,NE,34,8.0,8.0,75,0.00,,,0.00,VWS V14.01,2013-03-16 15:01:00,
2013-03-16 11:06:00,20.0,13.4,29.91,NE,34,8.0,8.0,75,0.00,,,0.00,VWS V14.01,2013-03-16 15:06:00,
2013-03-16 11:11:00,20.0,13.4,29.91,NE,40,3.0,3.0,75,0.00,,,0.00,VWS V14.01,2013-03-16 15:11:00,
2013-03-16 11:16:00,20.0,13.4,29.91,NE,40,3.0,3.0,75,0.00,,,0.00,VWS V14.01,2013-03-16 15:16:00,
2013-03-16 11:22:00,19.9,13.3,29.91,NE,40,3.0,3.0,75,0.00,,BKN047,0.00,VWS V14.01,2013-03-16 15:22:00,
2013-03-16 11:27:00,19.9,13.3,29.91,NNE,24,4.0,4.0,75,0.00,,BKN047,0.00,VWS V14.01,2013-03-16 15:27:00,
2013-03-16 11:32:00,19.9,13.3,29.85,NNE,18,6.0,6.0,75,0.00,,BKN047,0.00,VWS V14.01,2013-03-16 15:32:00,
2013-03-16 11:37:00,20.3,13.7,29.85,NNE,14,5.0,5.0,75,0.00,,BKN047,0.00,VWS V14.01,2013-03-16 15:37:00,
2013-03-16 11:42:00,20.5,13.9,29.85,NNE,30,5.0,7.0,75,0.00,,,0.00,VWS V14.01,2013-03-16 15:42:00,
2013-03-16 11:47:00,20.5,13.9,29.91,NNE,30,5.0,5.0,75,0.00,,,0.00,VWS V14.01,2013-03-16 15:47:00,
2013-03-16 11:52:00,20.5,13.9,29.91,North,10,0.0,0.0,75,0.00,,,0.00,VWS V14.01,2013-03-16 15:52:00,
2013-03-16 11:57:00,20.5,9.9,29.91,North,10,0.0,0.0,63,0.00,,,0.00,VWS V14.01,2013-03-16 15:57:00,
2013-03-16 12:02:00,20.5,9.9,29.92,NNE,14,0.0,0.0,63,0.00,,,0.00,VWS V14.01,2013-03-16 16:02:00,
2013-03-16 12:07:00,20.5,9.9,29.92,NNE,14,0.0,0.0,63,0.00,,,0.00,VWS V14.01,2013-03-16 16:07:00,
2013-03-16 12:13:00,20.5,9.9,29.92,NNE,28,0.0,0.0,63,0.00,,,0.00,VWS V14.01,2013-03-16 16:13:00,
2013-03-16 12:18:00,20.5,9.9,29.92,NE,51,0.0,0.0,63,0.00,,,0.00,VWS V14.01,2013-03-16 16:18:00,
2013-03-16 12:23:00,20.5,9.9,29.92,NE,51,0.0,0.0,63,0.00,,SCT020,0.00,VWS V14.01,2013-03-16 16:23:00,
2013-03-16 12:28:00,22.2,11.5,29.92,NE,51,0.0,0.0,63,0.00,,SCT020,0.00,VWS V14.01,2013-03-16 16:28:00,
2013-03-16 12:33:00,22.7,12.0,29.92,ENE,62,5.0,5.0,63,0.00,,SCT020,0.00,VWS V14.01,2013-03-16 16:33:00,
2013-03-16 12:38:00,22.7,12.0,29.92,North,0,7.0,7.0,63,0.00,,SCT020,0.00,VWS V14.01,2013-03-16 16:38:00,
2013-03-16 12:43:00,23.3,12.6,29.92,NNE,24,4.0,4.0,63,0.00,,SCT049,0.00,VWS V14.01,2013-03-16 16:43:00,
2013-03-16 12:48:00,23.6,12.9,29.93,NNE,25,0.0,0.0,63,0.00,,SCT049,0.00,VWS V14.01,2013-03-16 16:48:00,
2013-03-16 12:53:00,22.9,12.2,29.93,NNE,18,6.0,6.0,63,0.00,,SCT049,0.00,VWS V14.01,2013-03-16 16:53:00,
2013-03-16 12:58:00,22.9,10.7,29.93,NW,315,0.0,0.0,59,0.02,,SCT049,0.02,VWS V14.01,2013-03-16 16:58:00,
2013-03-16 13:03:00,22.7,9.8,29.93,North,7,0.0,0.0,57,0.02,,SCT049,0.02,VWS V14.01,2013-03-16 17:03:00,
2013-03-16 13:08:00,22.7,9.8,29.93,North,0,0.0,0.0,57,0.02,,SCT049,0.02,VWS V14.01,2013-03-16 17:08:00,
2013-03-16 13:13:00,22.7,9.8,29.93,NE,44,0.0,0.0,57,0.02,,SCT049,0.02,VWS V14.01,2013-03-16 17:13:00,
2013-03-16 13:18:00,22.7,9.8,29.93,NE,44,0.0,0.0,57,0.02,,SCT049,0.02,VWS V14.01,2013-03-16 17:18:00,
2013-03-16 13:24:00,22.7,9.8,29.93,NE,44,0.0,0.0,57,0.02,,BKN025,0.02,VWS V14.01,2013-03-16 17:24:00,
2013-03-16 13:29:00,22.7,9.8,29.93,NE,41,0.0,0.0,57,0.02,,BKN025,0.02,VWS V14.01,2013-03-16 17:29:00,
2013-03-16 13:34:00,22.7,9.8,29.93,North,3,3.0,3.0,57,0.02,,BKN025,0.02,VWS V14.01,2013-03-16 17:34:00,
2013-03-16 13:39:00,22.7,9.8,29.93,NE,34,1.0,1.0,57,0.02,,BKN025,0.02,VWS V14.01,2013-03-16 17:39:00,
2013-03-16 13:44:00,22.7,9.8,29.93,NE,34,1.0,1.0,57,0.02,,BKN029,0.02,VWS V14.01,2013-03-16 17:44:00,
2013-03-16 13:49:00,22.7,9.0,29.93,North,352,0.0,0.0,55,0.02,,BKN029,0.02,VWS V14.01,2013-03-16 17:49:00,
2013-03-16 13:54:00,22.7,9.0,29.93,WNW,301,0.0,0.0,55,0.02,,BKN029,0.02,VWS V14.01,2013-03-16 17:54:00,
2013-03-16 13:59:00,23.2,9.4,29.93,North,349,0.0,0.0,55,0.00,,BKN029,0.02,VWS V14.01,2013-03-16 17:59:00,
2013-03-16 14:04:00,23.2,9.4,29.93,NNE,28,0.0,0.0,55,0.00,,CLR,0.02,VWS V14.01,2013-03-16 18:04:00,
2013-03-16 14:09:00,24.8,10.9,29.93,NNE,20,0.0,0.0,55,0.00,,CLR,0.02,VWS V14.01,2013-03-16 18:09:00,
2013-03-16 14:14:00,24.8,10.9,29.93,North,353,0.0,0.0,55,0.00,,CLR,0.02,VWS V14.01,2013-03-16 18:14:00,
2013-03-16 14:19:00,24.8,10.9,29.93,NNW,346,5.0,5.0,55,0.00,,CLR,0.02,VWS V14.01,2013-03-16 18:19:00,
2013-03-16 14:24:00,23.8,10.0,29.93,NNW,346,5.0,5.0,55,0.00,,SCT022,0.02,VWS V14.01,2013-03-16 18:24:00,
2013-03-16 14:29:00,23.8,10.0,29.93,ENE,64,0.0,0.0,55,0.00,,SCT022,0.02,VWS V14.01,2013-03-16 18:29:00,
2013-03-16 14:34:00,24.4,10.6,29.93,NNW,333,0.0,0.0,55,0.00,,SCT022,0.02,VWS V14.01,2013-03-16 18:34:00,
2013-03-16 14:39:00,24.4,10.6,29.93,NNW,343,0.0,0.0,55,0.00,,SCT022,0.02,VWS V14.01,2013-03-16 18:39:00,
2013-03-16 14:44:00,23.9,10.1,29.93,NNW,343,0.0,0.0,55,0.00,,BKN020,0.02,VWS V14.01,2013-03-16 18:44:00,
2013-03-16 14:49:00,23.9,10.1,29.92,NNE,13,0.0,0.0,55,0.00,,BKN020,0.02,VWS V14.01,2013-03-16 18:49:00,
2013-03-16 14:54:00,23.9,10.1,29.92,NNW,347,0.0,0.0,55,0.00,,BKN020,0.02,VWS V14.01,2013-03-16 18:54:00,
2013-03-16 14:59:00,23.3,10.3,29.92,NNW,336,2.0,2.0,57,0.00,,BKN020,0.02,VWS V14.01,2013-03-16 18:59:00,
2013-03-16 15:04:00,22.7,10.2,29.92,North,359,0.0,0.0,58,0.01,,SCT020,0.03,VWS V14.01,2013-03-16 19:04:00,
2013-03-16 15:09:00,22.7,10.2,29.92,North,359,0.0,0.0,58,0.01,,SCT020,0.03,VWS V14.01,2013-03-16 19:09:00,
2013-03-16 15:14:00,22.7,10.2,29.92,North,0,0.0,0.0,58,0.01,,SCT020,0.03,VWS V14.01,2013-03-16 19:14:00,
2013-03-16 15:19:00,23.6,11.0,29.92,NW,320,5.0,5.0,58,0.01,,SCT020,0.03,VWS V14.01,2013-03-16 19:19:00,
2013-03-16 15:25:00,24.7,12.0,29.92,NW,322,6.0,6.0,58,0.01,,SCT020,0.03,VWS V14.01,2013-03-16 19:25:00,
2013-03-16 15:30:00,25.3,12.6,29.92,NW,322,6.0,6.0,58,0.01,,SCT020,0.03,VWS V14.01,2013-03-16 19:30:00,
2013-03-16 15:35:00,25.3,12.6,29.93,North,359,1.0,1.0,58,0.01,,SCT020,0.03,VWS V14.01,2013-03-16 19:35:00,
2013-03-16 15:40:00,25.3,12.6,29.93,NNE,27,2.0,2.0,58,0.01,,SCT018,0.03,VWS V14.01,2013-03-16 19:40:00,
2013-03-16 15:45:00,25.3,12.6,29.93,NE,38,2.0,2.0,58,0.01,,SCT018,0.03,VWS V14.01,2013-03-16 19:45:00,
2013-03-16 15:50:00,25.3,12.6,29.91,North,349,5.0,5.0,58,0.01,,SCT018,0.03,VWS V14.01,2013-03-16 19:50:00,
2013-03-16 15:55:00,25.3,12.6,29.91,North,349,5.0,5.0,58,0.01,,SCT018,0.03,VWS V14.01,2013-03-16 19:55:00,
2013-03-16 16:00:00,25.3,12.6,29.91,NNE,18,0.0,7.0,58,0.01,,SCT018,0.03,VWS V14.01,2013-03-16 20:00:00,
2013-03-16 16:05:00,25.3,12.6,29.92,West,280,5.0,5.0,58,0.00,,CLR,0.03,VWS V14.01,2013-03-16 20:05:00,
2013-03-16 16:10:00,25.3,12.6,29.92,WNW,292,2.0,2.0,58,0.00,,CLR,0.03,VWS V14.01,2013-03-16 20:10:00,
2013-03-16 16:15:00,25.0,12.3,29.92,WNW,292,2.0,2.0,58,0.00,,CLR,0.03,VWS V14.01,2013-03-16 20:15:00,
2013-03-16 16:20:00,25.0,9.9,29.92,NW,305,0.0,2.0,52,0.00,,CLR,0.03,VWS V14.01,2013-03-16 20:20:00,
2013-03-16 16:25:00,25.0,9.9,29.92,North,7,5.0,5.0,52,0.00,,CLR,0.03,VWS V14.01,2013-03-16 20:25:00,
2013-03-16 16:30:00,25.0,9.9,29.93,North,0,0.0,6.0,52,0.00,,CLR,0.03,VWS V14.01,2013-03-16 20:30:00,
2013-03-16 16:35:00,25.0,9.9,29.93,NW,323,1.0,1.0,52,0.00,,CLR,0.03,VWS V14.01,2013-03-16 20:35:00,
2013-03-16 16:41:00,25.0,9.9,29.93,NNW,342,4.0,5.0,52,0.00,,SCT018,0.03,VWS V14.01,2013-03-16 20:41:00,
2013-03-16 16:46:00,25.0,9.9,29.92,NNW,342,4.0,4.0,52,0.00,,SCT018,0.03,VWS V14.01,2013-03-16 20:46:00,
2013-03-16 16:51:00,25.0,9.9,29.92,NE,45,7.0,7.0,52,0.00,,SCT018,0.03,VWS V14.01,2013-03-16 20:51:00,
2013-03-16 16:56:00,25.0,9.9,29.92,NW,313,0.0,0.0,52,0.00,,SCT018,0.03,VWS V14.01,2013-03-16 20:56:00,
2013-03-16 17:01:00,25.0,9.9,29.92,NNW,340,0.0,0.0,52,0.00,,SCT018,0.03,VWS V14.01,2013-03-16 21:01:00,
2013-03-16 17:06:00,25.0,9.9,29.92,West,275,0.0,0.0,52,0.00,,SCT018,0.03,VWS V14.01,2013-03-16 21:06:00,
2013-03-16 17:11:00,24.1,8.6,29.92,West,275,0.0,0.0,51,0.00,,SCT018,0.03,VWS V14.01,2013-03-16 21:11:00,
2013-03-16 17:16:00,24.1,8.6,29.93,NW,326,5.0,5.0,51,0.00,,SCT018,0.03,VWS V14.01,2013-03-16 21:16:00,
2013-03-16 17:21:00,24.1,8.6,29.93,North,359,0.0,0.0,51,0.00,,CLR,0.03,VWS V14.01,2013-03-16 21:21:00,
2013-03-16 17:26:00,24.1,8.6,29.93,West,270,1.0,1.0,51,0.00,,CLR,0.03,VWS V14.01,2013-03-16 21:26:00,
2013-03-16 17:31:00,23.2,7.8,29.92,NNW,328,0.0,0.0,51,0.00,,CLR,0.03,VWS V14.01,2013-03-16 21:31:00,
2013-03-16 17:36:00,23.2,7.8,29.92,NNW,330,0.0,0.0,51,0.00,,CLR,0.03,VWS V14.01,2013-03-16 21:36:00,
2013-03-16 17:42:00,23.2,9.0,29.92,West,271,3.0,3.0,54,0.00,,CLR,0.03,VWS V14.01,2013-03-16 21:42:00,
2013-03-16 17:47:00,23.0,8.0,29.93,North,356,0.0,0.0,52,0.00,,CLR,0.03,VWS V14.01,2013-03-16 21:47:00,
2013-03-16 17:52:00,23.2,8.6,29.93,NNW,328,0.0,0.0,53,0.00,,CLR,0.03,VWS V14.01,2013-03-16 21:52:00,
2013-03-16 17:57:00,23.2,8.6,29.93,NNW,332,0.0,0.0,53,0.00,,CLR,0.03,VWS V14.01,2013-03-16 21:57:00,
2013-03-16 18:02:00,23.3,8.7,29.93,NNW,344,0.0,0.0,53,0.00,,CLR,0.03,VWS V14.01,2013-03-16 22:02:00,
2013-03-16 18:07:00,23.2,8.2,29.93,WNW,294,0.0,0.0,52,0.00,,CLR,0.03,VWS V14.01,2013-03-16 22:07:00,
2013-03-16 18:12:00,23.2,8.2,29.93,West,263,0.0,0.0,52,0.00,,CLR,0.03,VWS V14.01,2013-03-16 22:12:00,
2013-03-16 18:17:00,23.0,8.0,29.93,WNW,292,0.0,0.0,52,0.00,,CLR,0.03,VWS V14.01,2013-03-16 22:17:00,
2013-03-16 18:22:00,22.9,7.9,29.93,NNW,335,0.0,0.0,52,0.00,,CLR,0.03,VWS V14.01,2013-03-16 22:22:00,
2013-03-16 18:27:00,22.7,7.7,29.93,WNW,291,0.0,0.0,52,0.00,,CLR,0.03,VWS V14.01,2013-03-16 22:27:00,
2013-03-16 18:32:00,22.4,7.4,29.94,North,354,0.0,0.0,52,0.00,,CLR,0.03,VWS V14.01,2013-03-16 22:32:00,
2013-03-16 18:37:00,22.1,7.2,29.94,WSW,246,0.0,0.0,52,0.00,,CLR,0.03,VWS V14.01,2013-03-16 22:37:00,
2013-03-16 18:42:00,22.1,7.2,29.94,WSW,243,0.0,0.0,52,0.00,,CLR,0.03,VWS V14.01,2013-03-16 22:42:00,
2013-03-16 18:47:00,21.8,6.9,29.94,WNW,294,0.0,0.0,52,0.00,,CLR,0.03,VWS V14.01,2013-03-16 22:47:00,
2013-03-16 18:53:00,21.8,6.9,29.94,SW,229,0.0,0.0,52,0.00,,CLR,0.03,VWS V14.01,2013-03-16 22:53:00,
2013-03-16 18:58:00,21.8,6.9,29.94,NW,323,5.0,5.0,52,0.00,,CLR,0.03,VWS V14.01,2013-03-16 22:58:00,
2013-03-16 19:03:00,21.8,6.9,29.93,WNW,288,0.0,0.0,52,0.00,,CLR,0.03,VWS V14.01,2013-03-16 23:03:00,
2013-03-16 19:08:00,21.8,6.9,29.93,West,278,0.0,0.0,52,0.00,,CLR,0.03,VWS V14.01,2013-03-16 23:08:00,
2013-03-16 19:13:00,21.1,6.2,29.93,West,264,0.0,0.0,52,0.00,,CLR,0.03,VWS V14.01,2013-03-16 23:13:00,
2013-03-16 19:18:00,21.1,6.2,29.93,SW,234,0.0,0.0,52,0.00,,CLR,0.03,VWS V14.01,2013-03-16 23:18:00,
2013-03-16 19:23:00,21.0,7.8,29.93,WSW,246,0.0,0.0,56,0.00,,CLR,0.03,VWS V14.01,2013-03-16 23:23:00,
2013-03-16 19:28:00,20.6,7.4,29.93,WSW,246,0.0,0.0,56,0.00,,CLR,0.03,VWS V14.01,2013-03-16 23:28:00,
2013-03-16 19:33:00,20.5,7.3,29.93,WSW,243,0.0,0.0,56,0.00,,CLR,0.03,VWS V14.01,2013-03-16 23:33:00,
2013-03-16 19:38:00,20.3,7.1,29.93,SW,232,0.0,0.0,56,0.00,,CLR,0.03,VWS V14.01,2013-03-16 23:38:00,
2013-03-16 19:43:00,20.0,6.8,29.93,SW,230,0.0,0.0,56,0.00,,CLR,0.03,VWS V14.01,2013-03-16 23:43:00,
2013-03-16 19:48:00,19.7,6.6,29.92,SW,222,0.0,0.0,56,0.00,,CLR,0.03,VWS V14.01,2013-03-16 23:48:00,
2013-03-16 19:53:00,19.5,6.4,29.92,SW,222,0.0,0.0,56,0.00,,CLR,0.03,VWS V14.01,2013-03-16 23:53:00,
2013-03-16 19:58:00,19.2,6.1,29.92,SW,222,0.0,0.0,56,0.00,,CLR,0.03,VWS V14.01,2013-03-16 23:58:00,
2013-03-16 20:03:00,18.8,5.7,29.92,SW,222,0.0,0.0,56,0.00,,CLR,0.03,VWS V14.01,2013-03-17 00:03:00,
2013-03-16 20:08:00,18.1,5.1,29.92,SW,222,0.0,0.0,56,0.00,,CLR,0.03,VWS V14.01,2013-03-17 00:08:00,
2013-03-16 20:13:00,18.1,6.9,29.92,SW,222,0.0,0.0,61,0.00,,CLR,0.03,VWS V14.01,2013-03-17 00:13:00,
2013-03-16 20:18:00,18.1,6.9,29.93,SW,222,0.0,0.0,61,0.00,,CLR,0.03,VWS V14.01,2013-03-17 00:18:00,
2013-03-16 20:23:00,18.1,6.9,29.93,SW,222,0.0,0.0,61,0.00,,CLR,0.03,VWS V14.01,2013-03-17 00:23:00,
2013-03-16 20:28:00,16.5,5.4,29.93,SW,222,0.0,0.0,61,0.00,,CLR,0.03,VWS V14.01,2013-03-17 00:28:00,
2013-03-16 20:33:00,16.4,5.3,29.93,SW,222,0.0,0.0,61,0.00,,CLR,0.03,VWS V14.01,2013-03-17 00:33:00,
2013-03-16 20:38:00,16.4,5.3,29.93,SW,222,0.0,0.0,61,0.00,,CLR,0.03,VWS V14.01,2013-03-17 00:38:00,
2013-03-16 20:43:00,16.4,5.3,29.93,SW,222,0.0,0.0,61,0.00,,CLR,0.03,VWS V14.01,2013-03-17 00:43:00,
2013-03-16 20:49:00,16.4,5.3,29.93,SW,222,0.0,0.0,61,0.00,,CLR,0.03,VWS V14.01,2013-03-17 00:49:00,
2013-03-16 20:54:00,16.4,5.3,29.93,SW,222,0.0,0.0,61,0.00,,CLR,0.03,VWS V14.01,2013-03-17 00:54:00,
2013-03-16 20:59:00,16.4,5.3,29.93,SW,222,0.0,0.0,61,0.00,,CLR,0.03,VWS V14.01,2013-03-17 00:59:00,
2013-03-16 21:04:00,16.4,5.3,29.93,SW,222,0.0,0.0,61,0.00,,CLR,0.03,VWS V14.01,2013-03-17 01:04:00,
2013-03-16 21:09:00,16.4,5.3,29.93,SW,222,0.0,0.0,61,0.00,,CLR,0.03,VWS V14.01,2013-03-17 01:09:00,
2013-03-16 21:14:00,13.3,2.4,29.93,SW,222,0.0,0.0,61,0.00,,CLR,0.03,VWS V14.01,2013-03-17 01:14:00,
2013-03-16 21:19:00,13.3,2.4,29.93,SW,222,0.0,0.0,61,0.00,,CLR,0.03,VWS V14.01,2013-03-17 01:19:00,
2013-03-16 21:24:00,11.6,0.8,29.93,SW,222,0.0,0.0,61,0.00,,BKN060,0.03,VWS V14.01,2013-03-17 01:24:00,
2013-03-16 21:29:00,11.6,0.8,29.93,SW,222,0.0,0.0,61,0.00,,BKN060,0.03,VWS V14.01,2013-03-17 01:29:00,
2013-03-16 21:34:00,12.8,1.9,29.94,North,0,0.0,0.0,61,0.00,,BKN060,0.03,VWS V14.01,2013-03-17 01:34:00,
2013-03-16 21:39:00,12.8,1.9,29.94,North,0,0.0,0.0,61,0.00,,BKN060,0.03,VWS V14.01,2013-03-17 01:39:00,
2013-03-16 21:44:00,12.8,1.9,29.94,SW,222,0.0,0.0,61,0.00,,OVC060,0.03,VWS V14.01,2013-03-17 01:44:00,
2013-03-16 21:49:00,12.8,1.9,29.94,SW,222,0.0,0.0,61,0.00,,OVC060,0.03,VWS V14.01,2013-03-17 01:49:00,
2013-03-16 21:54:00,13.1,2.2,29.94,SW,222,0.0,0.0,61,0.00,,OVC060,0.03,VWS V14.01,2013-03-17 01:54:00,
2013-03-16 21:59:00,13.3,2.4,29.94,SW,222,0.0,0.0,61,0.00,,OVC060,0.03,VWS V14.01,2013-03-17 01:59:00,
2013-03-16 22:04:00,13.3,2.4,29.95,SW,222,0.0,0.0,61,0.00,,OVC060,0.03,VWS V14.01,2013-03-17 02:04:00,
2013-03-16 22:09:00,13.8,2.8,29.95,SW,222,0.0,0.0,61,0.00,,OVC060,0.03,VWS V14.01,2013-03-17 02:09:00,
2013-03-16 22:14:00,13.8,2.8,29.95,SW,222,0.0,0.0,61,0.00,,OVC060,0.03,VWS V14.01,2013-03-17 02:14:00,
2013-03-16 22:19:00,13.8,2.8,29.95,SW,222,0.0,0.0,61,0.00,,OVC060,0.03,VWS V14.01,2013-03-17 02:19:00,
2013-03-16 22:25:00,14.6,3.6,29.95,SW,222,0.0,0.0,61,0.00,,OVC060,0.03,VWS V14.01,2013-03-17 02:25:00,
2013-03-16 22:29:00,14.6,3.6,29.95,SSW,195,0.0,0.0,61,0.00,,OVC060,0.03,VWS V14.01,2013-03-17 02:29:00,
2013-03-16 22:35:00,14.6,3.6,29.95,SSW,195,0.0,0.0,61,0.00,,OVC060,0.03,VWS V14.01,2013-03-17 02:35:00,
2013-03-16 22:40:00,14.6,3.6,29.95,SW,223,0.0,0.0,61,0.00,,OVC049,0.03,VWS V14.01,2013-03-17 02:40:00,
2013-03-16 22:45:00,14.6,3.6,29.95,SW,223,0.0,0.0,61,0.00,,OVC049,0.03,VWS V14.01,2013-03-17 02:45:00,
2013-03-16 22:50:00,14.6,3.6,29.96,SW,223,0.0,0.0,61,0.00,,OVC049,0.03,VWS V14.01,2013-03-17 02:50:00,
2013-03-16 22:55:00,14.6,3.6,29.96,SW,217,0.0,0.0,61,0.00,,OVC049,0.03,VWS V14.01,2013-03-17 02:55:00,
2013-03-16 22:58:00,22.1,10.7,29.95,SW,219,0.0,5.0,61,0.00,,,0.03,VWS V14.01,2013-03-17 02:58:00,
2013-03-16 22:59:00,22.1,10.7,29.95,SW,219,0.0,5.0,61,0.00,,,0.03,VWS V14.01,2013-03-17 02:59:00,
2013-03-16 23:00:00,14.6,3.6,29.96,SW,217,0.0,0.0,61,0.00,,OVC047,0.03,VWS V14.01,2013-03-17 03:00:00,
2013-03-16 23:01:00,22.1,10.7,29.96,SW,219,0.0,0.0,61,0.00,,,0.03,VWS V14.01,2013-03-17 03:01:00,
2013-03-16 23:02:00,22.1,10.7,29.96,SW,219,0.0,0.0,61,0.00,,,0.03,VWS V14.01,2013-03-17 03:02:00,
2013-03-16 23:03:00,22.1,10.7,29.96,SW,219,0.0,0.0,61,0.00,,,0.03,VWS V14.01,2013-03-17 03:03:00,
2013-03-16 23:04:00,22.1,10.7,29.96,SW,219,0.0,0.0,61,0.00,,,0.03,VWS V14.01,2013-03-17 03:04:00,
2013-03-16 23:05:00,14.6,3.6,29.96,SW,217,0.0,0.0,61,0.00,,OVC047,0.03,VWS V14.01,2013-03-17 03:05:00,
2013-03-16 23:06:00,22.1,10.7,29.96,WNW,296,0.0,0.0,61,0.00,,,0.03,VWS V14.01,2013-03-17 03:06:00,
2013-03-16 23:07:00,22.1,10.7,29.96,WNW,296,0.0,0.0,61,0.00,,,0.03,VWS V14.01,2013-03-17 03:07:00,
2013-03-16 23:08:00,22.1,10.7,29.96,WNW,296,0.0,0.0,61,0.00,,,0.03,VWS V14.01,2013-03-17 03:08:00,
2013-03-16 23:09:00,22.1,10.7,29.96,West,260,0.0,0.0,61,0.00,,,0.03,VWS V14.01,2013-03-17 03:09:00,
2013-03-16 23:10:00,14.6,3.6,29.96,SW,226,7.0,7.0,61,0.00,,OVC047,0.03,VWS V14.01,2013-03-17 03:10:00,
2013-03-16 23:11:00,22.1,10.7,29.96,West,260,0.0,0.0,61,0.00,,,0.03,VWS V14.01,2013-03-17 03:11:00,
2013-03-16 23:12:00,22.1,10.7,29.96,West,260,0.0,0.0,61,0.00,,,0.03,VWS V14.01,2013-03-17 03:12:00,
2013-03-16 23:13:00,22.1,10.7,29.96,West,260,0.0,0.0,61,0.00,,,0.03,VWS V14.01,2013-03-17 03:13:00,
2013-03-16 23:15:00,14.6,3.6,29.96,SSW,213,7.0,7.0,61,0.00,,OVC047,0.03,VWS V14.01,2013-03-17 03:15:00,
2013-03-16 23:20:00,14.6,3.6,29.96,SSW,213,7.0,7.0,61,0.00,,,0.03,VWS V14.01,2013-03-17 03:20:00,
2013-03-16 23:25:00,14.6,3.6,29.96,SSW,210,5.0,5.0,61,0.00,,,0.03,VWS V14.01,2013-03-17 03:25:00,
2013-03-16 23:30:00,14.6,3.6,29.95,SSW,210,5.0,5.0,61,0.00,,,0.03,VWS V14.01,2013-03-17 03:30:00,
2013-03-16 23:35:00,14.6,3.6,29.95,SSW,210,0.0,0.0,61,0.00,,,0.03,VWS V14.01,2013-03-17 03:35:00,
2013-03-16 23:40:00,14.6,3.6,29.95,WSW,246,1.0,1.0,61,0.00,,,0.03,VWS V14.01,2013-03-17 03:40:00,
2013-03-16 23:45:00,14.6,3.6,29.95,West,263,0.0,0.0,61,0.00,,,0.03,VWS V14.01,2013-03-17 03:45:00,
2013-03-16 23:50:00,14.6,3.6,29.95,SW,233,6.0,6.0,61,0.00,,,0.03,VWS V14.01,2013-03-17 03:50:00,
2013-03-16 23:55:00,22.1,10.7,29.95,SW,220,5.0,5.0,61,0.00,,,0.03,VWS V14.01,2013-03-17 03:55:00,